• In Belgium
  • List of Countries
  • For 7 days
  • Water Temperature
  • Satellite Maps
  • Weather Map
  • Weather Widgets
  • user-avatar
    Login

    Hourly Weather Kos

    Today, 24 October, Tuesday

    Time Temperature Precipitation Wind Pressure Humidity
    00:00 +17°C° 0.5 mm 8 mps 757 mmHg 85%
    01:00 +17°C° 0.5 mm 8 mps 757 mmHg 84%
    02:00 +17°C° 0.5 mm 8 mps 756 mmHg 83%
    03:00 +18°C° 1.2 mm 8 mps 756 mmHg 83%
    04:00 +18°C° 1.2 mm 8 mps 756 mmHg 83%
    05:00 +18°C° 1.2 mm 8 mps 755 mmHg 83%
    06:00 +18°C° 1.6 mm 7 mps 755 mmHg 84%
    07:00 +18°C° 1.6 mm 7 mps 755 mmHg 86%
    08:00 +20°C° 1.6 mm 7 mps 755 mmHg 88%
    09:00 +20°C° 0.8 mm 7 mps 756 mmHg 83%
    10:00 +21°C° 0.8 mm 6 mps 756 mmHg 79%
    11:00 +21°C° 0.8 mm 6 mps 756 mmHg 74%
    12:00 +21°C° 0.4 mm 6 mps 756 mmHg 71%
    13:00 +22°C° 0.4 mm 6 mps 756 mmHg 68%
    14:00 +22°C° 0.4 mm 5 mps 756 mmHg 64%
    15:00 +21°C° 0.5 mm 5 mps 756 mmHg 69%
    16:00 +20°C° 0.5 mm 5 mps 756 mmHg 73%
    17:00 +20°C° 0.5 mm 4 mps 756 mmHg 77%
    18:00 +19°C° 0.5 mm 4 mps 756 mmHg 80%
    19:00 +18°C° 0.5 mm 4 mps 757 mmHg 82%
    20:00 +17°C° 0.5 mm 3 mps 757 mmHg 84%
    21:00 +17°C° 0.4 mm 3 mps 758 mmHg 84%
    22:00 +18°C° 0.4 mm 3 mps 758 mmHg 83%
    23:00 +18°C° 0.4 mm 3 mps 758 mmHg 83%

    Tomorrow, 25 October, Wednesday

    Time Temperature Precipitation Wind Pressure Humidity
    00:00 +17°C° 0.4 mm 2 mps 758 mmHg 84%
    01:00 +17°C° 0.4 mm 2 mps 759 mmHg 86%
    02:00 +16°C° 0.4 mm 2 mps 759 mmHg 87%
    03:00 +16°C° 0.3 mm 2 mps 759 mmHg 88%
    04:00 +16°C° 0.3 mm 2 mps 759 mmHg 90%
    05:00 +15°C° 0.3 mm 2 mps 759 mmHg 91%
    06:00 +16°C° 0.4 mm 3 mps 759 mmHg 89%
    07:00 +17°C° 0.4 mm 3 mps 760 mmHg 87%
    08:00 +17°C° 0.4 mm 4 mps 760 mmHg 85%
    09:00 +19°C° 0.3 mm 4 mps 761 mmHg 75%
    10:00 +21°C° 0.3 mm 4 mps 761 mmHg 65%
    11:00 +22°C° 0.3 mm 4 mps 761 mmHg 55%
    12:00 +23°C° 0.5 mm 4 mps 761 mmHg 54%
    13:00 +23°C° 0.5 mm 4 mps 761 mmHg 53%
    14:00 +23°C° 0.5 mm 4 mps 761 mmHg 52%
    15:00 +22°C° 0.6 mm 4 mps 761 mmHg 59%
    16:00 +21°C° 0.6 mm 4 mps 762 mmHg 66%
    17:00 +19°C° 0.6 mm 4 mps 762 mmHg 73%
    18:00 +19°C° 0.4 mm 4 mps 762 mmHg 75%
    19:00 +18°C° 0.4 mm 4 mps 763 mmHg 77%
    20:00 +18°C° 0.4 mm 3 mps 764 mmHg 79%
    21:00 +17°C° 0.2 mm 3 mps 764 mmHg 80%
    22:00 +17°C° 0.2 mm 3 mps 764 mmHg 81%
    23:00 +17°C° 0.2 mm 3 mps 765 mmHg 82%

    Day after tomorrow, 26 October, Thursday

    Time Temperature Precipitation Wind Pressure Humidity
    00:00 +16°C° 0 mm 3 mps 765 mmHg 82%
    01:00 +16°C° 0 mm 3 mps 765 mmHg 83%
    02:00 +16°C° 0 mm 3 mps 765 mmHg 83%
    03:00 +16°C° 0 mm 3 mps 765 mmHg 83%
    04:00 +14°C° 0 mm 3 mps 765 mmHg 83%
    05:00 +14°C° 0 mm 3 mps 765 mmHg 83%
    06:00 +16°C° 0 mm 3 mps 766 mmHg 80%
    07:00 +16°C° 0 mm 3 mps 766 mmHg 77%
    08:00 +17°C° 0 mm 4 mps 767 mmHg 74%
    09:00 +18°C° 0 mm 3 mps 767 mmHg 67%
    10:00 +20°C° 0 mm 3 mps 767 mmHg 59%
    11:00 +22°C° 0 mm 3 mps 767 mmHg 51%
    12:00 +24°C° 0 mm 3 mps 767 mmHg 48%
    13:00 +24°C° 0 mm 3 mps 766 mmHg 45%
    14:00 +25°C° 0 mm 3 mps 766 mmHg 42%
    15:00 +24°C° 0 mm 3 mps 766 mmHg 46%
    16:00 +22°C° 0 mm 4 mps 766 mmHg 50%
    17:00 +21°C° 0 mm 4 mps 766 mmHg 54%
    18:00 +20°C° 0 mm 4 mps 766 mmHg 58%
    19:00 +19°C° 0 mm 5 mps 766 mmHg 62%
    20:00 +17°C° 0 mm 5 mps 766 mmHg 67%
    21:00 +16°C° 0 mm 5 mps 766 mmHg 69%
    22:00 +16°C° 0 mm 5 mps 766 mmHg 71%
    23:00 +15°C° 0 mm 5 mps 766 mmHg 74%

    27 October, Friday

    Time Temperature Precipitation Wind Pressure Humidity
    00:00 +15°C° 0 mm 5 mps 766 mmHg 74%
    01:00 +15°C° 0 mm 5 mps 765 mmHg 75%
    02:00 +14°C° 0 mm 5 mps 765 mmHg 76%
    03:00 +14°C° 0 mm 5 mps 765 mmHg 77%
    04:00 +14°C° 0 mm 5 mps 765 mmHg 78%
    05:00 +13°C° 0 mm 5 mps 764 mmHg 79%
    06:00 +14°C° 0 mm 5 mps 764 mmHg 76%
    07:00 +15°C° 0 mm 4 mps 764 mmHg 73%
    08:00 +15°C° 0 mm 4 mps 764 mmHg 70%
    09:00 +19°C° 0 mm 4 mps 764 mmHg 62%
    10:00 +21°C° 0 mm 4 mps 764 mmHg 54%
    11:00 +23°C° 0 mm 4 mps 764 mmHg 46%
    12:00 +25°C° 0 mm 4 mps 763 mmHg 43%
    13:00 +26°C° 0 mm 4 mps 763 mmHg 40%
    14:00 +26°C° 0 mm 4 mps 762 mmHg 37%
    15:00 +25°C° 0 mm 4 mps 762 mmHg 41%
    16:00 +23°C° 0 mm 4 mps 762 mmHg 46%
    17:00 +22°C° 0 mm 4 mps 762 mmHg 51%
    18:00 +21°C° 0 mm 4 mps 762 mmHg 55%
    19:00 +20°C° 0 mm 3 mps 762 mmHg 60%
    20:00 +18°C° 0 mm 3 mps 762 mmHg 64%
    21:00 +18°C° 0 mm 3 mps 761 mmHg 65%
    22:00 +18°C° 0 mm 3 mps 761 mmHg 66%
    23:00 +17°C° 0 mm 3 mps 761 mmHg 68%

    28 October, Saturday

    Time Temperature Precipitation Wind Pressure Humidity
    00:00 +17°C° 0 mm 3 mps 761 mmHg 67%
    01:00 +17°C° 0 mm 3 mps 760 mmHg 67%
    02:00 +17°C° 0 mm 3 mps 760 mmHg 66%
    03:00 +17°C° 0 mm 3 mps 760 mmHg 66%
    04:00 +16°C° 0 mm 2 mps 759 mmHg 66%
    05:00 +16°C° 0 mm 2 mps 759 mmHg 66%
    06:00 +17°C° 0 mm 2 mps 759 mmHg 63%
    07:00 +18°C° 0 mm 3 mps 759 mmHg 60%
    08:00 +19°C° 0 mm 3 mps 759 mmHg 57%
    09:00 +20°C° 0 mm 3 mps 759 mmHg 53%
    10:00 +22°C° 0 mm 3 mps 759 mmHg 50%
    11:00 +24°C° 0 mm 3 mps 759 mmHg 46%
    12:00 +25°C° 0 mm 3 mps 759 mmHg 46%
    13:00 +25°C° 0 mm 3 mps 759 mmHg 47%
    14:00 +25°C° 0 mm 4 mps 758 mmHg 48%
    15:00 +24°C° 0 mm 3 mps 758 mmHg 54%
    16:00 +21°C° 0 mm 3 mps 758 mmHg 60%
    17:00 +20°C° 0 mm 3 mps 758 mmHg 67%
    18:00 +19°C° 0 mm 3 mps 759 mmHg 71%
    19:00 +18°C° 0 mm 4 mps 759 mmHg 74%
    20:00 +17°C° 0 mm 4 mps 759 mmHg 78%
    21:00 +17°C° 0.1 mm 4 mps 759 mmHg 78%
    22:00 +17°C° 0.1 mm 4 mps 759 mmHg 77%
    23:00 +16°C° 0.1 mm 5 mps 759 mmHg 77%

    29 October, Sunday

    Time Temperature Precipitation Wind Pressure Humidity
    00:00 +16°C° 0.2 mm 5 mps 759 mmHg 77%
    01:00 +17°C° 0.2 mm 5 mps 759 mmHg 76%
    02:00 +17°C° 0.2 mm 5 mps 758 mmHg 75%
    03:00 +17°C° 0.1 mm 6 mps 758 mmHg 80%
    04:00 +17°C° 0.1 mm 6 mps 758 mmHg 84%
    05:00 +17°C° 0.1 mm 6 mps 758 mmHg 88%
    06:00 +19°C° 0 mm 6 mps 758 mmHg 87%
    07:00 +18°C° 0 mm 7 mps 758 mmHg 86%
    08:00 +18°C° 0 mm 7 mps 758 mmHg 85%
    09:00 +20°C° 0.1 mm 7 mps 758 mmHg 77%
    10:00 +21°C° 0.1 mm 7 mps 758 mmHg 70%
    11:00 +22°C° 0.1 mm 7 mps 758 mmHg 62%
    12:00 +23°C° 0.2 mm 7 mps 758 mmHg 60%
    13:00 +24°C° 0.2 mm 7 mps 757 mmHg 59%
    14:00 +26°C° 0.2 mm 7 mps 757 mmHg 57%
    15:00 +23°C° 0.4 mm 7 mps 757 mmHg 64%
    16:00 +22°C° 0.4 mm 6 mps 757 mmHg 72%
    17:00 +21°C° 0.4 mm 6 mps 757 mmHg 79%
    18:00 +21°C° 0.8 mm 7 mps 757 mmHg 82%
    19:00 +20°C° 0.8 mm 7 mps 757 mmHg 86%
    20:00 +18°C° 0.8 mm 7 mps 758 mmHg 89%
    21:00 +18°C° 1.1 mm 8 mps 758 mmHg 90%
    22:00 +18°C° 1.1 mm 8 mps 758 mmHg 91%
    23:00 +18°C° 1.1 mm 9 mps 758 mmHg 92%

    30 October, Monday

    Time Temperature Precipitation Wind Pressure Humidity
    00:00 +18°C° 1 mm 9 mps 758 mmHg 91%
    01:00 +18°C° 1 mm 10 mps 758 mmHg 90%
    02:00 +19°C° 1 mm 10 mps 757 mmHg 90%
    03:00 +18°C° 0.7 mm 10 mps 757 mmHg 89%
    04:00 +18°C° 0.7 mm 10 mps 757 mmHg 89%
    05:00 +18°C° 0.7 mm 9 mps 757 mmHg 88%
    06:00 +19°C° 0.7 mm 9 mps 757 mmHg 86%
    07:00 +19°C° 0.7 mm 9 mps 758 mmHg 84%
    08:00 +21°C° 0.7 mm 9 mps 758 mmHg 82%
    09:00 +22°C° 0.7 mm 9 mps 758 mmHg 77%
    10:00 +23°C° 0.7 mm 9 mps 758 mmHg 72%
    11:00 +24°C° 0.7 mm 9 mps 758 mmHg 67%
    12:00 +23°C° 1 mm 9 mps 758 mmHg 67%
    13:00 +23°C° 1 mm 9 mps 758 mmHg 68%
    14:00 +23°C° 1 mm 9 mps 758 mmHg 68%
    15:00 +22°C° 1.2 mm 9 mps 758 mmHg 71%
    16:00 +21°C° 1.2 mm 9 mps 758 mmHg 74%
    17:00 +21°C° 1.2 mm 9 mps 758 mmHg 76%
    18:00 +19°C° 0.8 mm 9 mps 758 mmHg 79%
    19:00 +19°C° 0.8 mm 9 mps 758 mmHg 81%
    20:00 +18°C° 0.8 mm 9 mps 759 mmHg 84%
    21:00 +18°C° 0.8 mm 10 mps 759 mmHg 85%
    22:00 +17°C° 0.8 mm 10 mps 759 mmHg 86%
    23:00 +17°C° 0.8 mm 10 mps 759 mmHg 87%
    Show more